Location: Risskov
(56.1972°N, 10.2480°E)
Time: 00:25:37
(UTC+00:00)

Cosmos 1680 Rocket - Pass Details

Date: 05 July 2020
Orbit: 760 x 781 km, 74.1° (Epoch: 03 August)

Event Time Altitude Azimuth Distance (km) Brightness Sun altitude
Exits shadow 23:15:57 - 225° (SW) 2,934 6.1 -11.1°
Reaches altitude 10° 23:17:33 10° 229° (SW) 2,336 5.6 -11.1°
Maximum altitude 23:22:44 53° 306° (NW) 959 4.3 -11.1°
Drops below altitude 10° 23:27:59 10° 24° (NNE) 2,349 7.2 -11.1°
Sets 23:30:26 0° 29° (NNE) 3,279 8.0 -11.1°
